Powrót do katalogu

COSMOS 2251 DEB

AktywnyLEO
NORAD 37089·DEBRIS·🇷🇺 Russia

Wystrzelony Jun 16, 1993 z Plesetsk Cosmodrome

Loading…

Następne Przeloty (najbliższe 24 godziny)

TLE

NieaktualneSource: Space-Track

Epoka: Sep 7, 2026, 13:50 UTC

1 37089U 93036BFK 26250.57644001  .00003324  00000-0  66265-3 0  9990
2 37089  74.0377 356.2361 0128775  28.0511 332.7513 14.57236690700217

Śledź COSMOS 2251 DEB w czasie rzeczywistym z AllMySat

Download on the App Store